Location: ??????
(41.3164°N, 22.6615°E)
Time: 23:57:38
(UTC+00:00)

Cosmos 2150 Rocket - Pass Details

Date: 16 October 2021
Orbit: 750 x 807 km, 74.0° (Epoch: 26 November)

Event Time Altitude Azimuth Distance (km) Brightness Sun altitude
Rises 16:31:08 0° 195° (SSW) 3,306 7.5 -9.1°
Reaches altitude 10° 16:33:32 10° 194° (SSW) 2,377 6.8 -9.5°
Maximum altitude 16:38:58 81° 108° (ESE) 815 4.1 -10.5°
Drops below altitude 10° 16:44:22 10° 21° (NNE) 2,370 6.3 -11.6°
Sets 16:46:46 0° 21° (NNE) 3,296 7.1 -12.0°
